Location: Cheyres
(46.8153°N, 6.7877°E)
Time: 22:23:59
(UTC+00:00)

QB50P2 - Pass Details

Date: 01 July 2022
Orbit: 590 x 605 km, 97.9° (Epoch: 15 August)

Event Time Altitude Azimuth Distance (km) Brightness Sun altitude
Rises 01:40:35 0° 6° (N) 2,860 ? -14.7°
Reaches altitude 10° 01:42:52 10° 358° (N) 1,955 ? -14.5°
Maximum altitude 01:46:47 38° 291° (WNW) 935 ? -14.1°
Enters shadow 01:49:10 20° 235° (SW) 1,399 ? -13.9°
